Year,Month,Day,Hour,Minute,Value (Times are PST for insolation in W/m^2)
2008,12,22,09,47,19.00
2008,12,22,09,48,19.00
2008,12,22,09,49,19.00
2008,12,22,09,50,19.00
2008,12,22,09,51,19.00
2008,12,22,09,52,19.00
2008,12,22,09,53,19.00
2008,12,22,09,54,19.00
2008,12,22,09,55,19.00
2008,12,22,09,56,19.00
2008,12,22,09,57,19.00
2008,12,22,09,58,19.00
2008,12,22,09,59,18.20
2008,12,22,10,00,18.00
2008,12,22,10,01,18.00
2008,12,22,10,02,18.00
2008,12,22,10,03,16.70
2008,12,22,10,04,16.00
2008,12,22,10,05,16.00
2008,12,22,10,06,16.00
2008,12,22,10,07,14.50
2008,12,22,10,08,14.00
2008,12,22,10,09,14.00
2008,12,22,10,10,14.00
2008,12,22,10,11,14.00
2008,12,22,10,12,14.00
2008,12,22,10,13,14.00
2008,12,22,10,14,14.00
2008,12,22,10,15,14.00
2008,12,22,10,16,14.00
2008,12,22,10,17,14.00
2008,12,22,10,18,14.00
2008,12,22,10,19,14.00
2008,12,22,10,20,14.00
2008,12,22,10,21,14.00
2008,12,22,10,22,14.00
2008,12,22,10,23,14.00
2008,12,22,10,24,15.30
2008,12,22,10,25,16.00
2008,12,22,10,26,16.00
2008,12,22,10,27,16.00
2008,12,22,10,28,14.70
2008,12,22,10,29,14.00
2008,12,22,10,30,14.00
2008,12,22,10,31,12.70
2008,12,22,10,32,12.00
2008,12,22,10,33,12.00
2008,12,22,10,34,12.00
2008,12,22,10,35,12.00
2008,12,22,10,36,12.00
2008,12,22,10,37,12.00
2008,12,22,10,38,12.00
2008,12,22,10,39,12.00
2008,12,22,10,40,12.00
2008,12,22,10,41,13.40
2008,12,22,10,42,15.50
2008,12,22,10,43,17.50
2008,12,22,10,44,18.60
2008,12,22,10,45,20.30
2008,12,22,10,46,21.00
2008,12,22,10,47,22.30
2008,12,22,10,48,23.00
2008,12,22,10,49,24.40
2008,12,22,10,50,25.00
2008,12,22,10,51,25.00
2008,12,22,10,52,25.00
2008,12,22,10,53,25.00
2008,12,22,10,54,25.00
2008,12,22,10,55,25.00
2008,12,22,10,56,25.00
2008,12,22,10,57,25.00
2008,12,22,10,58,23.50
2008,12,22,10,59,23.00
2008,12,22,11,00,21.60
2008,12,22,11,01,19.70
2008,12,22,11,02,19.00
2008,12,22,11,03,18.20
2008,12,22,11,04,18.00
2008,12,22,11,05,18.00
2008,12,22,11,06,18.00
2008,12,22,11,07,18.00
2008,12,22,11,08,18.00
2008,12,22,11,09,18.00
2008,12,22,11,10,18.60
2008,12,22,11,11,19.00
2008,12,22,11,12,19.00
2008,12,22,11,13,19.00
2008,12,22,11,14,19.00
2008,12,22,11,15,20.50
2008,12,22,11,16,21.00
2008,12,22,11,17,21.00
2008,12,22,11,18,21.00
2008,12,22,11,19,21.00
2008,12,22,11,20,21.00
2008,12,22,11,21,21.00
2008,12,22,11,22,19.70
2008,12,22,11,23,19.00
2008,12,22,11,24,19.00
2008,12,22,11,25,19.00
2008,12,22,11,26,19.00
2008,12,22,11,27,19.00
2008,12,22,11,28,18.20
2008,12,22,11,29,18.00
2008,12,22,11,30,18.00
2008,12,22,11,31,18.00
2008,12,22,11,32,18.00
2008,12,22,11,33,18.00
2008,12,22,11,34,18.00
2008,12,22,11,35,18.80
2008,12,22,11,36,19.00
2008,12,22,11,37,19.00
2008,12,22,11,38,19.00
2008,12,22,11,39,18.20
2008,12,22,11,40,18.00
2008,12,22,11,41,18.00
2008,12,22,11,42,18.00
2008,12,22,11,43,18.00
2008,12,22,11,44,18.70
2008,12,22,11,45,19.00
2008,12,22,11,46,19.00
2008,12,22,11,47,19.00
2008,12,22,11,48,19.00
2008,12,22,11,49,19.00
2008,12,22,11,50,20.50
2008,12,22,11,51,21.00
2008,12,22,11,52,21.00
2008,12,22,11,53,19.50
2008,12,22,11,54,19.00
2008,12,22,11,55,19.00
2008,12,22,11,56,19.00
2008,12,22,11,57,19.00
2008,12,22,11,58,18.40
2008,12,22,11,59,18.00
2008,12,22,12,00,18.00
2008,12,22,12,01,18.00
2008,12,22,12,02,16.70
2008,12,22,12,03,16.00
2008,12,22,12,04,16.00
2008,12,22,12,05,16.00
2008,12,22,12,06,16.00
2008,12,22,12,07,16.00
2008,12,22,12,08,17.30
2008,12,22,12,09,18.00
2008,12,22,12,10,18.00
2008,12,22,12,11,18.00
2008,12,22,12,12,18.00
2008,12,22,12,13,18.60
2008,12,22,12,14,20.30
2008,12,22,12,15,21.00
2008,12,22,12,16,22.60
2008,12,22,12,17,23.00
2008,12,22,12,18,24.30
2008,12,22,12,19,25.00
2008,12,22,12,20,25.70
2008,12,22,12,21,27.50
2008,12,22,12,22,28.00
2008,12,22,12,23,29.50
2008,12,22,12,24,31.30
2008,12,22,12,25,32.00
2008,12,22,12,26,32.00
2008,12,22,12,27,32.00
2008,12,22,12,28,32.70
2008,12,22,12,29,33.00
2008,12,22,12,30,33.00
2008,12,22,12,31,33.00
2008,12,22,12,32,34.50
2008,12,22,12,33,35.00
2008,12,22,12,34,35.00
2008,12,22,12,35,37.60
2008,12,22,12,36,39.00
2008,12,22,12,37,39.00
2008,12,22,12,38,39.70
2008,12,22,12,39,36.40
2008,12,22,12,40,33.60
2008,12,22,12,41,32.20
2008,12,22,12,42,32.00
2008,12,22,12,43,32.00
2008,12,22,12,44,32.70
2008,12,22,12,45,33.00
2008,12,22,12,46,33.00
2008,12,22,12,47,33.00
2008,12,22,12,48,32.30
2008,12,22,12,49,32.00
2008,12,22,12,50,32.00
2008,12,22,12,51,35.60
2008,12,22,12,52,42.40
2008,12,22,12,53,42.70
2008,12,22,12,54,40.50
2008,12,22,12,55,39.30
2008,12,22,12,56,42.50
2008,12,22,12,57,44.00
2008,12,22,12,58,42.50
2008,12,22,12,59,44.60
2008,12,22,13,00,46.80
2008,12,22,13,01,51.90
2008,12,22,13,02,59.20
2008,12,22,13,03,62.80
2008,12,22,13,04,64.30
2008,12,22,13,05,67.90
2008,12,22,13,06,72.80
2008,12,22,13,07,78.60
2008,12,22,13,08,84.60
2008,12,22,13,09,91.10
2008,12,22,13,10,90.70
2008,12,22,13,11,96.50
2008,12,22,13,12,103.50
2008,12,22,13,13,99.80
2008,12,22,13,14,87.60
2008,12,22,13,15,89.40
2008,12,22,13,16,88.80
2008,12,22,13,17,80.10
2008,12,22,13,18,79.90
2008,12,22,13,19,82.40
2008,12,22,13,20,92.80
2008,12,22,13,21,107.20
2008,12,22,13,22,121.10
2008,12,22,13,23,119.90
2008,12,22,13,24,119.90
2008,12,22,13,25,132.70
2008,12,22,13,26,146.60
2008,12,22,13,27,152.90
2008,12,22,13,28,165.10
2008,12,22,13,29,159.60
2008,12,22,13,30,157.50
2008,12,22,13,31,167.20
2008,12,22,13,32,198.30
2008,12,22,13,33,213.00
2008,12,22,13,34,239.70
2008,12,22,13,35,246.90
2008,12,22,13,36,241.10
2008,12,22,13,37,237.10
2008,12,22,13,38,226.60
2008,12,22,13,39,201.30
2008,12,22,13,40,192.20
2008,12,22,13,41,203.10
2008,12,22,13,42,215.90
2008,12,22,13,43,218.00
2008,12,22,13,44,333.60
2008,12,22,13,45,401.80
2008,12,22,13,46,435.50
2008,12,22,13,47,462.90
2008,12,22,13,48,485.20
2008,12,22,13,49,491.20
2008,12,22,13,50,509.50
2008,12,22,13,51,528.60
2008,12,22,13,52,496.20
2008,12,22,13,53,432.20
2008,12,22,13,54,425.70
2008,12,22,13,55,438.80
2008,12,22,13,56,396.10
2008,12,22,13,57,357.80
2008,12,22,13,58,350.00
2008,12,22,13,59,318.20
2008,12,22,14,00,306.00
2008,12,22,14,01,306.00
2008,12,22,14,02,306.00
2008,12,22,14,03,347.90
2008,12,22,14,04,312.00
2008,12,22,14,05,282.60
2008,12,22,14,06,273.90
2008,12,22,14,07,306.70
2008,12,22,14,08,249.90
2008,12,22,14,09,225.80
2008,12,22,14,10,192.40
2008,12,22,14,11,176.60
2008,12,22,14,12,163.00
2008,12,22,14,13,150.80
2008,12,22,14,14,151.60
2008,12,22,14,15,153.00
2008,12,22,14,16,153.00
2008,12,22,14,17,136.40
2008,12,22,14,18,126.40
2008,12,22,14,19,117.10
2008,12,22,14,20,108.90
2008,12,22,14,21,105.60
2008,12,22,14,22,105.00
2008,12,22,14,23,105.00
2008,12,22,14,24,102.80
2008,12,22,14,25,99.10
2008,12,22,14,26,98.00
2008,12,22,14,27,99.40
2008,12,22,14,28,102.80
2008,12,22,14,29,104.00
2008,12,22,14,30,104.00
2008,12,22,14,31,101.40
2008,12,22,14,32,100.00
2008,12,22,14,33,101.40
2008,12,22,14,34,107.10
2008,12,22,14,35,114.10
2008,12,22,14,36,121.10
2008,12,22,14,37,123.00
2008,12,22,14,38,124.40
2008,12,22,14,39,123.60
2008,12,22,14,40,123.00
2008,12,22,14,41,121.60
2008,12,22,14,42,120.30
2008,12,22,14,43,115.70
2008,12,22,14,44,110.40
2008,12,22,14,45,106.10
2008,12,22,14,46,102.80
2008,12,22,14,47,99.10
2008,12,22,14,48,95.80
2008,12,22,14,49,91.40
2008,12,22,14,50,87.10
2008,12,22,14,51,82.40
2008,12,22,14,52,78.10
2008,12,22,14,53,74.80
2008,12,22,14,54,71.10
2008,12,22,14,55,67.80
2008,12,22,14,56,65.60
2008,12,22,14,57,65.00
2008,12,22,14,58,63.60
2008,12,22,14,59,60.70
2008,12,22,15,00,57.10
2008,12,22,15,01,52.40
2008,12,22,15,02,47.90
2008,12,22,15,03,44.80
2008,12,22,15,04,40.40
2008,12,22,15,05,37.60
2008,12,22,15,06,35.60
2008,12,22,15,07,33.60
2008,12,22,15,08,32.30
2008,12,22,15,09,32.00
2008,12,22,15,10,32.00
2008,12,22,15,11,30.50
2008,12,22,15,12,30.00
2008,12,22,15,13,30.00
2008,12,22,15,14,30.00
2008,12,22,15,15,31.40
2008,12,22,15,16,30.70
2008,12,22,15,17,30.00
2008,12,22,15,18,30.00
2008,12,22,15,19,28.60
2008,12,22,15,20,26.60
2008,12,22,15,21,26.00
2008,12,22,15,22,25.30
2008,12,22,15,23,25.00
2008,12,22,15,24,23.60
2008,12,22,15,25,23.00
2008,12,22,15,26,23.00
2008,12,22,15,27,23.00
2008,12,22,15,28,23.00
2008,12,22,15,29,21.60
2008,12,22,15,30,21.00
2008,12,22,15,31,19.60
2008,12,22,15,32,19.00
2008,12,22,15,33,19.00
2008,12,22,15,34,18.30
2008,12,22,15,35,18.00
2008,12,22,15,36,18.00
2008,12,22,15,37,18.00
2008,12,22,15,38,18.00
2008,12,22,15,39,18.00
2008,12,22,15,40,18.00
2008,12,22,15,41,18.00
2008,12,22,15,42,16.60
2008,12,22,15,43,16.00
2008,12,22,15,44,16.00
2008,12,22,15,45,16.00
2008,12,22,15,46,16.00
2008,12,22,15,47,16.00
2008,12,22,15,48,16.00
2008,12,22,15,49,16.00
2008,12,22,15,50,16.00
2008,12,22,15,51,16.00
2008,12,22,15,52,16.00
2008,12,22,15,53,16.00
2008,12,22,15,54,14.60
2008,12,22,15,55,14.00
2008,12,22,15,56,14.00
2008,12,22,15,57,14.00
2008,12,22,15,58,14.00
2008,12,22,15,59,14.00
2008,12,22,16,00,12.60
2008,12,22,16,01,12.00
2008,12,22,16,02,12.00
2008,12,22,16,03,12.00
2008,12,22,16,04,12.00
2008,12,22,16,05,12.00
2008,12,22,16,06,12.00
2008,12,22,16,07,12.00
2008,12,22,16,08,12.00
2008,12,22,16,09,12.00
2008,12,22,16,10,12.00
2008,12,22,16,11,12.00
2008,12,22,16,12,12.00
2008,12,22,16,13,12.00
2008,12,22,16,14,12.00
2008,12,22,16,15,12.00
2008,12,22,16,16,12.00
